カタログに戻る

METEOR 3-1 DEB

LostPO
NORAD 29137·DEBRIS·🇷🇺 Russia

打ち上げ Oct 24, 1985 から Plesetsk Cosmodrome

Loading…

次のパス (今後24時間)

TLE

古いSource: Space-Track

元期: Aug 5, 2021, 04:42 UTC

1 29137U 85100D   21217.19607703  .00000300  00000-0  67089-3 0  9998
2 29137  82.5472 177.7012 0021572   0.8226  59.5119 13.24324433811089

AllMySatでMETEOR 3-1 DEBをリアルタイム追跡

Download on the App Store